Probability
10 6 6 6 6 6 6 3 6 6 6 6 10 3 6 6 6 3 3 3 3 3 3 3 3 6 6 6 6 10 13 6 6 3 10 3 3 3 3 0 0 3 3
3 6 6 6 6 6 6 3 6 6 6 6 0 0 0 3 3 3 3 3 3 3 3 3 0 0 6 10 10 10 6 6 6 10 6 3 3 6 6 6 0 0 0
3 3 3 6 6 6 6 6 6 6 3 10 6 3 3 3 3 3 3 3 3 3 3 0 0 0 6 6 10 6 6 3 10 6 0 3 0 0 0 0 0 3 0
3 3 3 3 3 6 6 6 6 6 6 13 13 3 3 3 3 3 3 3 3 3 3 0 0 0 6 6 0 6 3 6 10 3 0 3 3 3 3 0 0 6 0
0 0 0 3 3 3 3 6 6 6 3 10 6 6 3 3 0 3 3 3 3 3 3 0 0 0 0 0 0 3 0 3 6 6 3 6 3 3 3 3 0 0 3
0 0 0 0 0 3 0 0 10 10 6 6 3 3 3 0 0 0 0 3 3 0 0 3 3 3 0 0 0 0 0 0 6 0 0 3 3 3 6 3 3 0 0
0 0 0 0 0 0 0 0 3 3 3 6 3 3 3 3 0 0 0 0 0 0 0 3 0 0 0 0 0 0 0 0 0 0 0 0 0 6 6 3 3 3 0
0 0 0 0 0 0 0 0 3 6 3 0 0 0 6 0 0 0 0 0 0 0 0 3 3 3 3 0 0 0 0 0 0 0 3 0 0 0 6 3 10 3 3
0 0 0 0 3 0 0 0 3 3 0 0 0 0 0 0 0 0 0 0 0 0 0 0 3 3 0 0 0 0 0 0 0 0 0 0 0 0 0 3 0 3 3
0 0 0 3 3 0 0 3 0 0 0 0 0 0 0 0 0 0 0 0 0 0 0 0 0 0 0 0 0 0 0 0 0 0 0 0 0 0 0 0 3 3 3
0 0 0 0 0 0 0 3 3 0 0 0 0 0 0 0 0 0 0 0 0 0 0 0 0 0 0 0 0 0 0 0 0 3 3 0 0 6 0 0 3 3 6
0 0 3 0 0 0 0 0 0 0 0 0 0 0 0 0 0 0 0 0 0 0 0 0 0 0 0 0 0 0 0 0 3 3 3 0 0 0 3 0 3 3 3
0 0 3 3 3 3 0 0 0 0 0 0 0 0 0 0 0 0 0 0 0 0 0 0 0 0 0 0 0 0 0 0 0 0 0 0 0 0 3 6 3 3 3
0 3 3 0 0 0 0 0 0 0 0 0 0 0 0 0 0 0 0 0 0 0 0 0 0 0 0 0 0 0 0 0 0 0 0 0 0 0 3 0 0 0 0
3 3 0 0 0 0 0 0 0 0 0 0 0 0 0 0 0 0 0 0 0 0 0 0 0 0 0 0 0 0 0 0 0 0 0 3 0 3 3 0 0 0 0
0 0 0 0 0 0 0 0 0 0 0 0 0 0 0 0 0 0 0 0 0 0 0 0 0 0 0 0 0 0 0 0 0 0 0 0 0 0 0 0 0 0 0
3 0 0 0 0 0 0 0 0 0 0 0 0 0 0 0 0 0 0 0 0 0 0 0 0 0 0 0 0 0 0 0 0 0 0 0 0 0 0 0 0 0 0
0 0 0 0 0 0 0 0 0 0 0 0 0 0 0 0 0 0 0 0 0 0 0 0 0 0 0 0 0 0 0 0 0 0 0 0 0 0 0 0 0 0 0
0 0 0 0 0 0 0 0 0 0 0 0 0 0 0 0 0 0 0 0 0 0 0 0 0 0 0 0 0 0 0 0 0 0 0 0 0 0 0 0 0 0 0
0 0 0 0 0 0 0 0 0 0 0 0 0 0 0 0 0 0 0 0 0 0 0 0 0 0 0 0 0 0 0 0 0 0 0 0 0 0 0 0 0 0 0
0 0 0 0 0 0 0 0 0 0 0 0 0 0 0 0 0 0 0 0 0 0 0 0 0 0 0 0 0 0 0 0 0 0 0 0 0 0 0 0 0 0 0
0 0 0 0 0 0 0 0 0 0 0 0 0 0 0 0 0 0 0 0 0 0 0 0 0 0 0 0 0 0 0 0 0 0 0 0 0 0 0 0 0 0 0
0 0 0 0 0 0 0 0 0 0 0 0 0 0 0 0 0 0 0 0 0 0 0 0 0 0 0 0 0 0 0 0 0 0 0 0 0 0 0 0 0 0 0
0 0 0 0 0 0 0 0 0 0 0 0 0 0 0 0 0 0 0 0 0 0 0 0 0 0 0 0 0 0 0 0 0 0 0 0 0 0 0 0 0 0 0
0 0 0 0 0 0 0 0 0 0 0 0 0 0 0 0 0 0 0 0 0 0 0 0 0 0 0 0 0 0 0 0 0 0 0 0 0 0 0 0 0 0 0
0 0 0 0 0 0 0 0 0 0 0 0 0 0 0 0 0 0 0 0 0 0 0 0 0 0 0 0 0 0 0 0 0 0 0 0 0 0 0 0 0 0 0
Height
5772 5769 5767 5764 5762 5760 5758 5754 5751 5747 5744 5741 5739 5736 5733 5730 5727 5724 5722 5720 5718 5717 5715 5713 5711 5709 5708 5706 5705 5704 5702 5701 5700 5699 5697 5695 5694 5693 5691 5690 5689 5688 5687
5767 5764 5761 5759 5756 5754 5751 5748 5745 5742 5739 5736 5733 5730 5727 5724 5721 5719 5716 5714 5712 5710 5708 5707 5705 5703 5701 5699 5698 5696 5695 5694 5693 5692 5690 5688 5687 5685 5684 5682 5681 5679 5678
5761 5759 5756 5753 5751 5748 5746 5743 5740 5737 5734 5731 5728 5725 5722 5719 5716 5714 5711 5709 5706 5704 5702 5700 5698 5696 5694 5692 5691 5689 5688 5687 5686 5685 5683 5681 5680 5678 5676 5675 5673 5671 5670
5756 5753 5750 5748 5745 5743 5740 5738 5735 5732 5729 5727 5723 5720 5717 5714 5711 5708 5706 5703 5700 5698 5696 5694 5692 5690 5688 5686 5685 5683 5682 5680 5679 5678 5676 5674 5673 5671 5669 5667 5666 5664 5663
5750 5748 5745 5743 5740 5737 5735 5732 5730 5727 5725 5722 5718 5715 5712 5709 5706 5703 5700 5697 5695 5692 5690 5688 5686 5684 5682 5680 5678 5677 5675 5674 5672 5671 5669 5668 5666 5664 5662 5660 5658 5656 5655
5745 5743 5740 5737 5735 5732 5729 5727 5725 5722 5719 5716 5713 5710 5707 5704 5700 5697 5695 5692 5689 5687 5684 5682 5680 5678 5676 5674 5672 5670 5669 5667 5666 5664 5662 5661 5659 5657 5655 5652 5651 5650 5648
5740 5737 5735 5732 5729 5726 5724 5722 5719 5717 5714 5711 5708 5705 5701 5698 5695 5692 5689 5687 5684 5681 5678 5676 5674 5672 5669 5667 5665 5663 5662 5660 5659 5657 5655 5654 5652 5650 5648 5646 5644 5642 5641
5735 5732 5730 5727 5724 5721 5719 5716 5714 5711 5708 5705 5702 5699 5696 5693 5690 5687 5684 5681 5678 5675 5672 5670 5667 5665 5663 5661 5659 5657 5655 5653 5651 5650 5648 5647 5645 5643 5641 5639 5637 5636 5634
5730 5728 5725 5722 5719 5716 5714 5711 5708 5706 5703 5700 5697 5694 5691 5688 5685 5682 5679 5676 5673 5670 5667 5664 5661 5659 5657 5654 5652 5650 5648 5646 5644 5643 5641 5640 5638 5636 5634 5632 5631 5629 5627
5725 5723 5720 5717 5715 5712 5709 5706 5704 5701 5698 5695 5692 5689 5686 5683 5680 5677 5674 5671 5668 5665 5662 5658 5655 5653 5650 5648 5646 5644 5642 5640 5637 5635 5634 5632 5631 5629 5627 5625 5623 5621 5620
5720 5718 5715 5713 5710 5707 5705 5702 5699 5696 5693 5691 5688 5685 5681 5678 5675 5672 5669 5666 5663 5660 5656 5653 5650 5647 5645 5642 5640 5638 5635 5633 5631 5629 5627 5625 5623 5621 5620 5618 5616 5614 5612
5715 5713 5711 5708 5706 5703 5700 5698 5695 5692 5690 5687 5684 5680 5677 5674 5671 5668 5665 5661 5658 5655 5651 5648 5645 5643 5640 5637 5635 5632 5629 5626 5624 5622 5620 5618 5616 5614 5613 5611 5609 5607 5605
5712 5709 5707 5704 5702 5699 5697 5694 5692 5689 5686 5683 5680 5677 5674 5670 5667 5664 5661 5657 5654 5650 5647 5644 5641 5638 5635 5632 5629 5626 5623 5621 5618 5616 5614 5612 5610 5608 5605 5603 5601 5599 5597
5708 5706 5703 5701 5698 5696 5693 5691 5688 5686 5683 5680 5677 5674 5670 5667 5663 5660 5657 5653 5650 5647 5643 5640 5637 5634 5631 5627 5624 5621 5618 5615 5613 5611 5608 5606 5603 5601 5599 5596 5594 5592 5590
5705 5702 5700 5697 5695 5693 5690 5688 5685 5683 5680 5677 5673 5670 5667 5663 5660 5656 5653 5650 5646 5643 5640 5637 5633 5630 5627 5623 5620 5617 5614 5611 5608 5606 5603 5600 5598 5595 5592 5590 5588 5585 5583
5702 5700 5697 5695 5692 5690 5688 5685 5683 5680 5677 5674 5670 5667 5664 5660 5657 5653 5650 5647 5643 5640 5637 5634 5631 5627 5624 5620 5617 5614 5611 5608 5605 5602 5599 5595 5593 5590 5587 5584 5582 5579 5576
5699 5697 5694 5692 5690 5687 5685 5683 5680 5678 5675 5672 5669 5665 5662 5659 5655 5651 5648 5645 5641 5638 5635 5632 5628 5625 5621 5618 5614 5611 5608 5604 5601 5598 5594 5591 5588 5585 5582 5579 5576 5573 5571
5696 5694 5691 5689 5687 5685 5682 5680 5678 5676 5673 5670 5667 5664 5661 5658 5654 5650 5647 5643 5640 5636 5633 5629 5626 5622 5619 5615 5612 5608 5605 5601 5597 5594 5590 5587 5583 5580 5577 5574 5571 5568 5566
5693 5691 5689 5687 5684 5682 5680 5678 5677 5675 5672 5669 5667 5664 5660 5657 5653 5650 5646 5642 5638 5634 5631 5627 5624 5620 5616 5613 5609 5605 5601 5598 5594 5590 5586 5583 5579 5576 5572 5569 5566 5564 5561
5691 5689 5687 5685 5683 5681 5679 5677 5676 5674 5671 5669 5666 5663 5660 5656 5653 5649 5645 5641 5637 5633 5630 5626 5622 5618 5614 5611 5607 5603 5599 5595 5591 5587 5583 5579 5575 5572 5569 5565 5562 5559 5556
5689 5687 5685 5683 5681 5680 5678 5677 5675 5673 5671 5669 5666 5663 5659 5656 5652 5648 5644 5641 5637 5633 5629 5625 5621 5617 5612 5608 5604 5600 5596 5592 5587 5583 5579 5576 5572 5568 5565 5561 5558 5555 5552
5687 5685 5683 5682 5680 5679 5678 5677 5675 5673 5670 5668 5665 5662 5659 5655 5652 5648 5644 5640 5636 5632 5628 5624 5620 5615 5611 5606 5602 5598 5593 5589 5585 5580 5576 5572 5569 5565 5561 5558 5554 5551 5548
5685 5683 5682 5680 5679 5678 5677 5676 5674 5672 5670 5667 5665 5662 5658 5655 5651 5647 5644 5640 5636 5631 5627 5623 5618 5614 5610 5605 5600 5595 5591 5586 5582 5578 5573 5569 5566 5562 5558 5555 5551 5548 5544
5683 5682 5680 5679 5678 5677 5676 5674 5673 5671 5669 5666 5664 5661 5657 5654 5650 5646 5643 5639 5635 5630 5626 5622 5617 5613 5608 5603 5598 5594 5589 5584 5579 5575 5571 5567 5562 5559 5555 5551 5548 5544 5541
5681 5680 5678 5677 5676 5675 5674 5673 5671 5669 5667 5665 5662 5660 5656 5653 5649 5645 5642 5638 5634 5629 5625 5621 5616 5612 5607 5602 5597 5592 5587 5583 5578 5573 5568 5564 5560 5556 5552 5548 5545 5541 5538
5678 5677 5676 5675 5674 5673 5672 5671 5670 5668 5666 5663 5661 5658 5655 5652 5648 5645 5641 5637 5633 5628 5624 5620 5615 5610 5605 5600 5595 5591 5586 5581 5576 5571 5566 5561 5557 5553 5549 5545 5541 5538 5534
Wind_Speed
21 22 22 22 22 23 24 24 24 22 22 22 22 23 23 22 22 21 21 21 21 21 21 21 22 21 22 22 22 22 23 23 23 23 24 25 25 24 24 25 26 27 27
21 22 22 21 21 22 23 23 22 21 21 22 22 22 22 21 21 20 20 21 21 21 21 21 21 22 22 22 21 22 22 22 22 23 23 24 24 24 24 25 25 25 25
21 21 21 21 21 20 21 21 21 21 21 21 22 22 21 21 20 19 20 20 21 20 20 21 22 22 22 22 21 21 21 21 21 22 22 22 23 22 23 23 24 24 24
21 21 21 21 20 20 20 20 20 20 20 20 21 21 22 20 20 20 20 21 21 20 20 21 21 22 22 21 20 20 20 20 21 21 21 22 22 22 22 23 23 23 24
21 20 20 20 20 19 19 20 19 19 20 20 21 21 21 21 20 21 21 21 20 20 21 21 21 21 22 21 20 19 20 20 21 21 21 22 22 22 23 23 22 23 23
21 20 20 19 19 18 18 19 19 20 21 21 21 21 22 21 21 22 22 21 21 21 20 21 21 21 21 20 20 20 21 21 22 22 22 22 22 22 23 22 22 22 22
20 19 19 19 18 18 19 19 19 20 20 21 21 22 22 21 21 21 21 21 21 20 20 20 20 20 20 20 20 21 21 21 21 21 21 22 22 22 22 22 22 21 21
19 19 19 19 19 19 19 19 19 20 20 21 21 21 21 21 21 21 20 20 20 20 20 20 20 20 21 20 20 20 20 20 21 21 21 21 21 21 22 22 22 22 22
20 19 18 18 18 18 18 19 19 19 19 19 18 18 19 19 20 20 19 19 19 19 19 20 20 20 20 20 20 19 19 20 21 20 20 20 21 21 21 22 22 23 22
20 19 18 18 18 18 17 17 18 18 17 17 16 17 18 18 18 18 18 18 18 19 19 19 19 19 19 19 19 19 20 20 20 20 20 21 21 21 21 21 22 22 22
19 18 17 17 17 17 16 16 16 16 16 16 16 17 17 17 18 17 18 18 18 19 19 19 18 18 17 17 18 18 19 19 19 19 19 20 21 21 20 20 21 21 22
18 17 17 17 17 16 15 15 15 15 15 16 16 16 16 18 17 17 17 18 18 19 18 18 17 17 17 17 17 17 18 18 18 18 19 19 20 20 20 21 21 22 22
16 16 16 16 15 15 15 14 14 15 15 15 16 16 16 17 17 17 17 18 18 18 18 17 17 17 17 17 17 17 17 17 17 18 19 19 19 19 19 20 20 21 21
16 15 14 14 14 14 14 14 15 15 15 15 16 16 16 16 16 17 17 17 17 17 16 16 16 16 16 17 17 17 17 17 17 17 18 18 19 19 19 20 20 21 21
14 14 13 13 14 14 14 15 15 15 16 17 16 16 16 16 17 17 16 16 17 16 16 16 17 16 16 17 17 16 17 17 17 17 17 18 19 19 19 19 19 19 20
14 14 13 13 13 13 14 14 14 15 15 16 16 16 16 16 17 17 16 16 16 15 16 16 16 16 16 16 17 16 17 17 17 17 18 18 18 18 18 18 19 18 18
13 13 13 13 12 13 13 14 13 14 15 15 15 15 15 16 16 17 16 16 16 16 16 16 16 16 16 16 17 17 17 18 17 18 18 18 18 18 17 17 17 17 17
13 13 12 12 12 12 12 11 11 12 13 14 14 14 15 15 16 16 16 16 16 16 16 16 16 16 16 17 17 17 17 17 17 18 18 18 18 17 17 16 17 17 17
12 12 11 11 11 11 10 10 10 10 11 12 13 14 14 15 15 15 16 16 16 16 16 16 16 16 17 17 17 18 17 18 18 19 18 18 17 17 17 17 17 16 16
11 10 10 10 10 10 9 8 8 10 11 12 13 14 14 14 15 15 16 16 16 16 16 17 17 17 17 17 18 18 18 18 19 19 18 18 18 17 17 17 16 16 17
9 9 9 9 9 8 7 7 8 9 10 11 12 13 14 14 14 15 15 16 16 17 17 18 18 18 18 18 18 19 19 19 19 19 19 18 18 18 17 17 16 16 16
9 9 8 8 7 6 6 7 8 9 10 11 12 13 14 14 15 15 15 16 17 17 17 18 19 19 19 19 19 20 20 20 20 19 19 19 19 18 18 17 17 17 16
7 7 7 6 6 6 6 6 7 9 10 11 12 13 15 15 15 15 16 17 18 18 18 19 19 19 20 21 21 21 21 21 20 20 20 20 19 19 19 18 18 17 17
7 7 7 6 6 6 6 7 8 9 10 11 11 13 14 15 15 15 16 16 17 18 19 19 19 20 21 22 22 23 23 22 22 22 21 20 20 19 19 19 18 18 17
7 7 7 7 6 7 7 7 8 9 10 11 12 13 14 14 15 15 16 17 17 18 18 19 19 20 22 23 23 22 23 23 23 23 22 21 20 19 19 19 19 18 18
7 7 6 6 7 7 7 8 9 10 10 10 11 13 13 14 15 15 16 17 18 18 18 19 20 21 23 23 22 22 22 23 23 23 23 22 21 20 20 19 19 19 19
Wind_Direction
306 307 306 302 299 297 299 301 303 302 303 304 303 304 303 303 300 297 296 294 292 290 290 290 289 289 288 287 284 282 282 281 281 280 281 283 282 282 281 279 276 275 273
309 310 309 307 305 303 302 302 304 304 304 305 305 306 305 304 302 301 298 298 297 293 291 290 292 291 290 287 284 283 282 282 282 282 284 285 287 284 282 282 280 277 275
311 310 309 307 307 305 304 305 307 306 306 306 306 306 306 305 303 301 300 300 301 298 295 293 293 293 292 290 287 285 284 284 285 286 287 289 290 288 284 283 281 279 277
310 309 308 308 308 305 303 304 306 308 308 307 306 306 306 303 304 303 303 302 301 299 297 294 293 293 293 291 289 287 287 287 287 288 290 291 291 289 288 287 285 283 282
310 307 307 308 310 307 305 305 305 306 307 306 307 308 308 305 304 307 306 306 303 301 300 297 296 294 295 293 291 289 288 287 288 288 289 291 291 290 291 288 285 285 285
309 308 308 310 311 309 309 308 307 306 305 306 306 307 307 307 305 305 307 307 303 302 301 299 297 295 295 294 293 292 290 289 288 289 291 291 292 292 292 289 286 285 285
312 311 310 310 310 309 309 307 308 307 306 306 305 306 306 307 307 309 308 306 305 302 301 300 299 297 297 296 295 295 291 290 289 289 288 289 290 290 290 289 287 285 283
315 315 314 313 312 310 310 309 309 309 309 307 305 305 306 308 308 310 310 309 307 306 304 303 301 299 300 298 299 296 293 291 290 288 287 288 289 289 288 289 288 286 284
316 316 316 316 315 313 313 314 314 313 312 312 310 309 310 312 312 312 313 311 311 310 309 307 305 303 302 300 299 297 297 296 292 288 287 288 289 289 289 288 288 287 285
316 316 316 316 316 316 316 317 318 317 317 316 315 313 314 316 316 314 313 314 314 314 313 313 311 308 306 303 301 299 298 297 295 292 289 288 288 288 289 289 290 287 285
317 317 318 318 317 318 318 320 321 322 322 322 320 319 319 320 319 317 317 317 317 316 315 315 313 312 311 309 306 303 301 298 296 294 292 290 290 290 288 289 290 289 286
318 318 319 319 319 321 323 325 327 327 326 326 325 324 324 323 321 322 321 320 319 317 316 316 315 313 313 314 311 307 305 301 298 297 295 293 291 290 289 290 289 288 287
322 322 321 320 321 324 327 330 330 328 328 328 328 326 326 325 325 323 322 321 322 322 320 319 318 318 316 316 316 315 313 309 305 301 300 297 295 294 293 293 293 291 289
323 324 322 322 323 326 330 332 332 330 330 330 331 332 331 331 329 329 327 325 324 324 324 324 324 324 325 323 322 320 318 317 314 309 307 304 301 301 300 298 295 295 291
325 326 325 325 326 327 329 331 331 332 332 331 332 335 334 333 334 335 334 333 332 331 331 331 332 332 333 333 331 327 325 323 320 316 313 311 308 306 304 302 300 300 298
325 324 325 327 327 328 331 334 334 335 337 338 337 337 338 338 337 338 339 340 339 339 337 334 336 337 336 335 333 330 328 326 324 321 319 318 317 314 311 309 306 303 302
324 323 323 328 329 329 331 334 336 339 342 344 346 345 344 345 346 345 344 345 344 342 342 342 341 341 338 337 336 333 331 329 328 326 325 324 321 318 315 313 312 310 308
323 323 324 326 327 328 330 334 340 344 348 351 353 353 353 354 355 354 352 351 350 349 347 345 345 345 344 342 340 336 334 333 333 333 330 328 326 323 319 316 316 315 313
323 327 328 326 328 331 333 337 344 351 355 357 357 357 357 357 357 357 357 358 358 358 354 353 352 350 349 347 344 342 341 340 339 337 336 333 331 330 326 321 320 318 316
320 327 330 328 331 337 343 350 354 355 356 358 359 360 360 358 357 358 0 3 4 3 1 360 358 354 351 349 347 346 345 344 343 341 339 337 334 332 330 327 324 321 320
317 324 330 333 336 341 350 357 358 357 359 1 2 2 2 1 359 1 4 5 5 4 2 2 1 358 353 350 348 346 346 346 346 345 343 340 337 336 335 332 328 326 323
316 320 329 335 339 346 353 359 1 3 3 3 2 2 2 1 1 3 2 2 1 1 1 1 1 359 356 354 351 348 347 347 346 346 345 344 341 340 338 335 332 331 328
309 317 325 332 335 343 349 353 356 360 360 358 357 357 358 359 0 0 0 360 360 360 0 0 1 360 359 357 355 354 353 352 350 348 346 344 341 340 339 338 336 334 332
304 312 318 324 331 334 335 340 345 348 350 352 354 354 356 357 358 359 359 359 359 360 360 359 359 360 358 355 354 355 356 355 353 350 347 345 343 341 340 339 338 336 334
302 306 310 313 317 321 324 327 331 336 341 346 349 351 353 355 357 358 357 357 358 358 358 358 359 359 356 354 354 355 355 354 352 351 349 346 345 343 342 341 340 338 337
297 296 298 303 306 309 313 319 326 331 335 341 346 350 351 354 356 357 356 356 357 356 356 356 357 356 355 355 355 355 354 352 350 350 349 347 346 344 342 343 343 341 340